Location: Complexul Astronomic Baia Mare
(47.6577°N, 23.5639°E)
Time: 13:23:28
(UTC+03:00)

ISS - Pass Details

Date: 02 June 2017
Orbit: 401 x 408 km, 51.6° (Epoch: 23 June)

Event Time Altitude Azimuth Distance (km) Brightness Sun altitude
Rises 01:34:21 0° 289° (WNW) 2,337 0.3 -20.1°
Reaches altitude 10° 01:36:39 10° 276° (W) 1,471 -1.0 -20.1°
Enters shadow 01:36:55 12° 273° (W) 1,379 -1.1 -20.1°
